Погода в Екимовке

Россия / Рязанская область     54°28′39″N   39°36′09″E
темп.,
°C
ветер,
м/с
пор.,
м/с
влажн.,
%
обл.,
%
осадки,
мм/ч
давл.,
гПа
погр.,
м
7 мая, пт
пт700:00+8з51089100 0.9 1010571
03:00+8юз2389100 1.9 101088
06:00+8з3690100 0.3 1011304
09:00+10зсз466668 0.3 1012814
12:00+12з67495 0.0 10131764
15:00+14з57425 0.0 10142350
18:00+13юз34535 0.0 1014247
21:00+9ю456199 0.0 101566
8 мая, сб
сб800:00+7ююв4106695 0.0 1015167
03:00+7ююв6156988 0.0 1014312
06:00+8ююв71776100 0.0 1012518
09:00+10ююв91677100 0.3 10101214
12:00+10ююв101881100 2.4 10071088
15:00+10ю91791100 5.6 10061035
18:00+10ю71495100 2.3 1005746
21:00+10ююз51194100 2.4 1005444
9 мая, вс
вс900:00+8юз51093100 0.0 1006540
03:00+5з71087100 0.1 1011793
06:00+5зсз6109199 0.0 1013841
09:00+6сз7977100 0.1 10151097
12:00+6сз6774100 0.0 10191095
15:00+7сз5867100 0.0 10211177
18:00+9с576549 0.1 1021843
21:00+5с227755 0.1 102423
10 мая, пн
пн1000:00+4ссз22810 0.0 102620
03:00+3ссз34825 0.0 102857
06:00+4с35815 0.0 1030116
09:00+10ссв35625 0.0 1031510
12:00+13ссв45465 0.0 10311298
15:00+15ссв35424 0.0 10301612
18:00+14ссв34582 0.0 1030182
21:00+9ссз22640 0.0 103113
11 мая, вт
вт1100:00+7в22705 0.0 103115
03:00+6всв33755 0.0 103230
06:00+6всв36804 0.0 1033134
09:00+12всв47621 0.0 1032541
12:00+16в67505 0.0 10311041
15:00+17в564810 0.0 10291012
18:00+16в366443 0.0 1029299
21:00+11в467496 0.0 102983